Overview Statistics Trail Chart Weather Telemetry Raw packets
 

This is the latest recevied weather packets stored in our database for station/object K3RUP-1. If no packets are shown the sender has not sent any weather packets the latest 10 day(s).

<< 110 111 112 113 114 >>
Time Temp. Humidity Pressure Rain* Wind** Luminosity Snow
1787856709 30.56° C 75% 1013.1 hPa 0 mm - 345 W/m² -
1787856409 30.56° C 75% 1013.3 hPa 0 mm - 484 W/m² -
1787856104 31.11° C 74% 1013.5 hPa 0 mm - 398 W/m² -
1787855799 31.11° C 75% 1013.3 hPa 0 mm - 402 W/m² -
1787855494 30.56° C 75% 1013.4 hPa 0 mm - 440 W/m² -
1787855193 30.56° C 75% 1013.5 hPa 0 mm - 590 W/m² -
1787854885 30.56° C 75% 1013.5 hPa 0 mm - 451 W/m² -
1787854579 30.56° C 74% 1013.5 hPa 0 mm - 603 W/m² -
1787854273 30.56° C 74% 1013.7 hPa 0 mm - 467 W/m² -
1787853969 30.56° C 74% 1013.7 hPa 0 mm - 494 W/m² -
1787853662 30.56° C 75% 1013.8 hPa 0 mm - 675 W/m² -
1787853361 29.44° C 77% 1013.8 hPa 0 mm - 663 W/m² -
1787853056 29.44° C 78% 1013.8 hPa 0 mm - 206 W/m² -
1787852751 30° C 76% 1013.8 hPa 0 mm - 173 W/m² -
1787852449 30.56° C 75% 1013.9 hPa 0 mm - 268 W/m² -
1787852144 30.56° C 76% 1013.9 hPa 0 mm - 546 W/m² -
1787851839 30.56° C 75% 1014 hPa 0 mm - 417 W/m² -
1787851532 30.56° C 76% 1014.1 hPa 0 mm - 606 W/m² -
1787851227 30.56° C 77% 1014.1 hPa 0 mm - 463 W/m² -
1787850922 31.11° C 75% 1014.1 hPa 0 mm - 465 W/m² -
1787850619 31.11° C 75% 1014.1 hPa 0 mm - 456 W/m² -
1787850313 30.56° C 75% 1014.2 hPa 0 mm - 535 W/m² -
1787850009 30.56° C 76% 1014.3 hPa 0 mm - 549 W/m² -
1787849703 30° C 76% 1014.3 hPa 0 mm - 492 W/m² -
1787849398 30° C 78% 1014.1 hPa 0 mm - 473 W/m² -

* Rain latest hour (hover to see other rain measurements)
** Current wind speed in m/s (hover to see current wind gust speed)